
11:56:20 AM 942 Tuesday, May 21, 2019  Message :- Start Log.....!!!

windowsName : Windows 10 Enterprise
version : 6.3
build : 18362
Product ID : 1814
64 Bit operating system? : Yes
===========================================Start==========================================
Caption : Intel64 Family 6 Model 142 Stepping 9
CreationClassName : Win32_Processor
CurrentClockSpeed : 2600
CurrentVoltage : 8
Manufacturer : GenuineIntel
MaxClockSpeed : 2701
Name : Intel(R) Core(TM) i5-7200U CPU @ 2.50GHz
NumberOfCores : 2
NumberOfLogicalProcessors : 4
PowerManagementSupported : False
Status : OK
=========================================END============================================

10:05:05 892 31 December 2019  Message :- Start Log.....!!!

10:06:20 51 31 December 2019  Message :- Start Log.....!!!

10:06:23 564 31 December 2019  Message :- Save call Start

10:06:23 869 31 December 2019  Message :- Start Log.....!!!

10:06:23 879 31 December 2019  Message :- Zip Start AD

10:06:24 66 31 December 2019  Message :- Zip End

10:06:27 940 31 December 2019  Message :- get Download paramenter 1st time

10:06:28 344 31 December 2019  Message :- start vishal task

10:06:28 405 31 December 2019  Message :- end vishal task

10:06:28 500 31 December 2019  Message :- first time download

10:06:28 525 31 December 2019  Message :-  Done version

10:06:28 525 31 December 2019  Message :-  start Port

10:06:28 586 31 December 2019  Message :-  Got Port

10:06:28 588 31 December 2019  Message :- start opening port

10:06:28 611 31 December 2019  Message :- port open 

10:06:28 622 31 December 2019  Message :- Done ctor, start event instialize

10:06:28 633 31 December 2019  Message :-  open call

10:06:28 654 31 December 2019  Message :- close hota open kela done 

10:06:28 667 31 December 2019  Message :-  open call end ,  start Port Done in PP3 class

10:06:28 729 31 December 2019  Message :-  sent 1st

10:06:28 946 31 December 2019  Message :-  Got 1

10:06:29 87 31 December 2019  Message :-  started sending Runtime

10:06:29 97 31 December 2019  Message :- Start sending File No :0

10:06:29 105 31 December 2019  Message :- Done File No :0

10:06:29 110 31 December 2019  Message :- pathvli ek

10:06:29 118 31 December 2019  Message :- 1st cha response 221

10:06:29 128 31 December 2019  Message :- Start sending File No :1

10:06:33 640 31 December 2019  Message :- Done File No :1

10:06:33 714 31 December 2019  Message :- Done both file..

10:06:39 443 31 December 2019  Message :- Runtime Cha response 221 Completed :) 

10:06:39 513 31 December 2019  Message :- port Exist and it is Closed

10:07:13 725 31 December 2019  Message :- Start Log.....!!!

10:08:37 314 31 December 2019  Message :- Save call Start

10:08:37 637 31 December 2019  Message :- Start Log.....!!!

10:08:37 645 31 December 2019  Message :- Zip Start AD

10:08:37 727 31 December 2019  Message :- Zip End

10:08:39 699 31 December 2019  Message :- get Download paramenter 1st time

10:08:40 155 31 December 2019  Message :- start vishal task

10:08:41 149 31 December 2019  Message :- end vishal task

10:08:41 194 31 December 2019  Message :- first time download

10:08:41 206 31 December 2019  Message :-  Done version

10:08:41 224 31 December 2019  Message :-  start Port

10:08:41 258 31 December 2019  Message :-  Got Port

10:08:41 260 31 December 2019  Message :- start opening port

10:08:41 273 31 December 2019  Message :- port open 

10:08:41 273 31 December 2019  Message :- Done ctor, start event instialize

10:08:41 273 31 December 2019  Message :-  open call

10:08:41 297 31 December 2019  Message :- close hota open kela done 

10:08:41 302 31 December 2019  Message :-  open call end ,  start Port Done in PP3 class

10:08:41 338 31 December 2019  Message :-  sent 1st

10:08:41 551 31 December 2019  Message :-  Got 1

10:08:41 722 31 December 2019  Message :-  started sending Application

10:08:41 822 31 December 2019  Message :- 2st cha response 221

10:08:42 99 31 December 2019  Message :- Project cha response 221 Completed :) 

10:08:42 179 31 December 2019  Message :- port Exist and it is Closed

10:08:42 180 31 December 2019  Message :- End 100%

10:10:06 963 31 December 2019  Message :- Start Log.....!!!

10:10:08 150 31 December 2019  Message :- Save call Start

10:10:08 426 31 December 2019  Message :- Start Log.....!!!

10:10:08 435 31 December 2019  Message :- Zip Start AD

10:10:08 517 31 December 2019  Message :- Zip End

10:10:10 292 31 December 2019  Message :- get Download paramenter 1st time

10:10:10 776 31 December 2019  Message :- start vishal task

10:10:11 877 31 December 2019  Message :- end vishal task

10:10:11 911 31 December 2019  Message :- first time download

10:10:11 913 31 December 2019  Message :-  Done version

10:10:11 913 31 December 2019  Message :-  start Port

10:10:11 952 31 December 2019  Message :-  Got Port

10:10:11 953 31 December 2019  Message :- start opening port

10:10:11 962 31 December 2019  Message :- port open 

10:10:11 962 31 December 2019  Message :- Done ctor, start event instialize

10:10:11 979 31 December 2019  Message :-  open call

10:10:11 996 31 December 2019  Message :- close hota open kela done 

10:10:12 2 31 December 2019  Message :-  open call end ,  start Port Done in PP3 class

10:10:12 41 31 December 2019  Message :-  sent 1st

10:10:12 261 31 December 2019  Message :-  Got 1

10:10:12 438 31 December 2019  Message :- Start 0%

10:10:12 455 31 December 2019  Message :- pathvli ek

10:10:12 469 31 December 2019  Message :- 1st cha response 221

10:10:12 571 31 December 2019  Message :- 2st cha response 221

10:10:12 971 31 December 2019  Message :- Project cha response 221 Completed :) 

10:10:13 37 31 December 2019  Message :- port Exist and it is Closed

10:10:13 43 31 December 2019  Message :- End 100%

10:11:16 529 31 December 2019  Message :- Start Log.....!!!

10:11:17 753 31 December 2019  Message :- Save call Start

10:11:18 82 31 December 2019  Message :- Start Log.....!!!

10:11:18 90 31 December 2019  Message :- Zip Start AD

10:11:18 181 31 December 2019  Message :- Zip End

10:11:19 704 31 December 2019  Message :- get Download paramenter 1st time

10:11:20 117 31 December 2019  Message :- start vishal task

10:11:21 146 31 December 2019  Message :- end vishal task

10:11:21 199 31 December 2019  Message :- first time download

10:11:21 200 31 December 2019  Message :-  Done version

10:11:21 219 31 December 2019  Message :-  start Port

10:11:21 261 31 December 2019  Message :-  Got Port

10:11:21 263 31 December 2019  Message :- start opening port

10:11:21 280 31 December 2019  Message :- port open 

10:11:21 283 31 December 2019  Message :- Done ctor, start event instialize

10:11:21 302 31 December 2019  Message :-  open call

10:11:21 317 31 December 2019  Message :- close hota open kela done 

10:11:21 329 31 December 2019  Message :-  open call end ,  start Port Done in PP3 class

10:11:21 413 31 December 2019  Message :-  sent 1st

10:11:21 630 31 December 2019  Message :-  Got 1

10:11:21 786 31 December 2019  Message :-  started sending Application

10:11:21 882 31 December 2019  Message :- 2st cha response 221

10:11:22 383 31 December 2019  Message :- Project cha response 221 Completed :) 

10:11:22 460 31 December 2019  Message :- port Exist and it is Closed

10:11:22 467 31 December 2019  Message :- End 100%

10:13:27 859 31 December 2019  Message :- Start Log.....!!!

10:13:28 846 31 December 2019  Message :- Save call Start

10:13:29 392 31 December 2019  Message :- Start Log.....!!!

10:13:29 411 31 December 2019  Message :- Zip Start AD

10:13:29 521 31 December 2019  Message :- Zip End

10:13:31 17 31 December 2019  Message :- get Download paramenter 1st time

10:13:31 416 31 December 2019  Message :- start vishal task

10:13:32 559 31 December 2019  Message :- end vishal task

10:13:32 602 31 December 2019  Message :- first time download

10:13:32 605 31 December 2019  Message :-  Done version

10:13:32 621 31 December 2019  Message :-  start Port

10:13:32 669 31 December 2019  Message :-  Got Port

10:13:32 670 31 December 2019  Message :- start opening port

10:13:32 688 31 December 2019  Message :- port open 

10:13:32 723 31 December 2019  Message :- Done ctor, start event instialize

10:13:32 737 31 December 2019  Message :-  open call

10:13:32 750 31 December 2019  Message :- close hota open kela done 

10:13:32 758 31 December 2019  Message :-  open call end ,  start Port Done in PP3 class

10:13:32 796 31 December 2019  Message :-  sent 1st

10:13:33 19 31 December 2019  Message :-  Got 1

10:13:33 153 31 December 2019  Message :-  started sending Application

10:13:33 251 31 December 2019  Message :- 2st cha response 221

10:13:33 708 31 December 2019  Message :- Project cha response 221 Completed :) 

10:13:33 784 31 December 2019  Message :- port Exist and it is Closed

10:13:33 787 31 December 2019  Message :- End 100%

10:13:54 103 31 December 2019  Message :- Start Log.....!!!

10:13:57 107 31 December 2019  Message :- Save call Start

10:13:57 364 31 December 2019  Message :- Start Log.....!!!

10:13:57 374 31 December 2019  Message :- Zip Start AD

10:13:57 466 31 December 2019  Message :- Zip End

10:14:01 71 31 December 2019  Message :- get Download paramenter 1st time

10:14:01 488 31 December 2019  Message :- start vishal task

10:14:02 631 31 December 2019  Message :- end vishal task

10:14:02 662 31 December 2019  Message :- first time download

10:14:02 663 31 December 2019  Message :-  Done version

10:14:02 677 31 December 2019  Message :-  start Port

10:14:02 702 31 December 2019  Message :-  Got Port

10:14:02 709 31 December 2019  Message :- start opening port

10:14:02 710 31 December 2019  Message :- port open 

10:14:02 717 31 December 2019  Message :- Done ctor, start event instialize

10:14:02 730 31 December 2019  Message :-  open call

10:14:02 741 31 December 2019  Message :- close hota open kela done 

10:14:02 749 31 December 2019  Message :-  open call end ,  start Port Done in PP3 class

10:14:02 785 31 December 2019  Message :-  sent 1st

10:14:03 1 31 December 2019  Message :-  Got 1

10:14:03 189 31 December 2019  Message :-  started sending Application

10:14:03 275 31 December 2019  Message :- 2st cha response 221

10:14:03 744 31 December 2019  Message :- Project cha response 221 Completed :) 

10:14:03 847 31 December 2019  Message :- port Exist and it is Closed

10:14:03 858 31 December 2019  Message :- End 100%

10:15:35 656 31 December 2019  Message :- Start Log.....!!!

10:15:38 397 31 December 2019  Message :- Save call Start

10:15:38 654 31 December 2019  Message :- Start Log.....!!!

10:15:38 663 31 December 2019  Message :- Zip Start AD

10:15:38 742 31 December 2019  Message :- Zip End

10:15:40 641 31 December 2019  Message :- get Download paramenter 1st time

10:15:41 61 31 December 2019  Message :- start vishal task

10:15:42 123 31 December 2019  Message :- end vishal task

10:15:42 158 31 December 2019  Message :- first time download

10:15:42 159 31 December 2019  Message :-  Done version

10:15:42 172 31 December 2019  Message :-  start Port

10:15:42 200 31 December 2019  Message :-  Got Port

10:15:42 201 31 December 2019  Message :- start opening port

10:15:42 201 31 December 2019  Message :- port open 

10:15:42 218 31 December 2019  Message :- Done ctor, start event instialize

10:15:42 218 31 December 2019  Message :-  open call

10:15:42 236 31 December 2019  Message :- close hota open kela done 

10:15:42 244 31 December 2019  Message :-  open call end ,  start Port Done in PP3 class

10:15:42 286 31 December 2019  Message :-  sent 1st

10:15:42 511 31 December 2019  Message :-  Got 1

10:15:42 690 31 December 2019  Message :- Start 0%

10:15:42 707 31 December 2019  Message :- pathvli ek

10:15:42 723 31 December 2019  Message :- 1st cha response 221

10:15:42 989 31 December 2019  Message :-  started sending Application

10:15:43 89 31 December 2019  Message :- 2st cha response 221

10:15:43 573 31 December 2019  Message :- Project cha response 221 Completed :) 

10:15:43 646 31 December 2019  Message :- port Exist and it is Closed

10:15:43 648 31 December 2019  Message :- End 100%

10:17:04 161 31 December 2019  Message :- Start Log.....!!!

10:42:59 15 31 December 2019  Message :- Start Log.....!!!

10:43:01 435 31 December 2019  Message :- Start Log.....!!!

10:43:14 799 31 December 2019  Message :- Start Log.....!!!

windowsName : Windows 10 Enterprise
version : 6.3
build : 18362
Product ID : 1814
64 Bit operating system? : Yes
===========================================Start==========================================
Caption : Intel64 Family 6 Model 142 Stepping 9
CreationClassName : Win32_Processor
CurrentClockSpeed : 2600
CurrentVoltage : 6
Manufacturer : GenuineIntel
MaxClockSpeed : 2701
Name : Intel(R) Core(TM) i5-7200U CPU @ 2.50GHz
NumberOfCores : 2
NumberOfLogicalProcessors : 4
PowerManagementSupported : False
Status : OK
=========================================END============================================

12:05:06 783 02 January 2020  Message :- Save call Start

12:05:07 439 02 January 2020  Message :- Start Log.....!!!

12:05:07 454 02 January 2020  Message :- Zip Start AD

12:05:07 673 02 January 2020  Message :- Zip End

12:05:10 976 02 January 2020  Message :- get Download paramenter 1st time

12:05:11 429 02 January 2020  Message :- start vishal task

12:05:11 508 02 January 2020  Message :- end vishal task

12:05:11 570 02 January 2020  Message :- first time download

12:05:11 586 02 January 2020  Message :-  Done version

12:05:11 586 02 January 2020  Message :-  start Port

12:05:11 617 02 January 2020  Message :-  Got Port

12:05:11 617 02 January 2020  Message :- start opening port

12:05:11 632 02 January 2020  Message :- port open 

12:05:11 632 02 January 2020  Message :- Done ctor, start event instialize

12:05:11 632 02 January 2020  Message :-  open call

12:05:11 679 02 January 2020  Message :- close hota open kela done 

12:05:11 695 02 January 2020  Message :-  open call end ,  start Port Done in PP3 class

12:05:11 726 02 January 2020  Message :-  sent 1st

12:05:11 945 02 January 2020  Message :-  Got 1

12:05:12 117 02 January 2020  Message :-  started sending Runtime

12:05:12 132 02 January 2020  Message :- Start sending File No :0

12:05:12 164 02 January 2020  Message :- Done File No :0

12:05:12 164 02 January 2020  Message :- pathvli ek

12:05:12 179 02 January 2020  Message :- 1st cha response 221

12:05:12 195 02 January 2020  Message :- Start sending File No :1

12:05:20 21 02 January 2020  Message :- Done File No :1

12:05:20 84 02 January 2020  Message :- Done both file..

12:05:21 787 02 January 2020  Message :- Runtime Cha response 221 Completed :) 

12:05:21 864 02 January 2020  Message :- port Exist and it is Closed

12:05:26 785 02 January 2020  Message :- Save call Start

12:05:27 35 02 January 2020  Message :- Start Log.....!!!

12:05:27 35 02 January 2020  Message :- Zip Start AD

12:05:27 129 02 January 2020  Message :- Zip End

12:06:53 512 02 January 2020  Message :- Save call Start

12:06:53 871 02 January 2020  Message :- Start Log.....!!!

12:06:53 871 02 January 2020  Message :- Zip Start AD

12:06:53 965 02 January 2020  Message :- Zip End

12:06:56 605 02 January 2020  Message :- get Download paramenter 1st time

12:06:57 27 02 January 2020  Message :- start vishal task

12:06:57 859 02 January 2020  Message :- end vishal task

12:06:57 879 02 January 2020  Message :- first time download

12:06:57 889 02 January 2020  Message :-  Done version

12:06:57 899 02 January 2020  Message :-  start Port

12:06:57 919 02 January 2020  Message :-  Got Port

12:06:57 934 02 January 2020  Message :- start opening port

12:06:57 939 02 January 2020  Message :- port open 

12:06:57 949 02 January 2020  Message :- Done ctor, start event instialize

12:06:57 954 02 January 2020  Message :-  open call

12:06:57 970 02 January 2020  Message :- close hota open kela done 

12:06:57 979 02 January 2020  Message :-  open call end ,  start Port Done in PP3 class

12:07:00 84 02 January 2020  Message :-  sent 1st

12:07:00 304 02 January 2020  Message :-  Got SomthingElse

12:07:00 373 02 January 2020  Message :- port Exist and it is Closed

12:07:33 509 02 January 2020  Message :- get Download paramenter second time 

12:07:33 545 02 January 2020  Message :- second time download

12:07:33 551 02 January 2020  Message :-  Done version

12:07:33 557 02 January 2020  Message :-  start Port

12:07:33 578 02 January 2020  Message :-  Got Port

12:07:33 583 02 January 2020  Message :- start opening port

12:07:33 589 02 January 2020  Message :- port open 

12:07:33 594 02 January 2020  Message :- Done ctor, start event instialize

12:07:33 599 02 January 2020  Message :-  open call

12:07:33 610 02 January 2020  Message :- close hota open kela done 

12:07:33 616 02 January 2020  Message :-  open call end ,  start Port Done in PP3 class

12:07:33 652 02 January 2020  Message :-  sent 1st

12:07:33 859 02 January 2020  Message :-  Got 1

12:07:34 53 02 January 2020  Message :-  started sending Application

12:07:34 79 02 January 2020  Message :- 1st cha response 221

12:07:34 161 02 January 2020  Message :- 2st cha response 221

12:07:34 603 02 January 2020  Message :- Project cha response 221 Completed :) 

12:07:34 678 02 January 2020  Message :- port Exist and it is Closed

12:07:34 688 02 January 2020  Message :- End 100%

12:14:36 748 02 January 2020  Message :- Start Log.....!!!

12:14:37 955 02 January 2020  Message :- Save call Start

12:14:38 207 02 January 2020  Message :- Start Log.....!!!

12:14:38 214 02 January 2020  Message :- Zip Start AD

12:14:38 306 02 January 2020  Message :- Zip End

12:14:40 717 02 January 2020  Message :- get Download paramenter 1st time

12:14:41 129 02 January 2020  Message :- start vishal task

12:14:41 209 02 January 2020  Message :- end vishal task

12:14:41 239 02 January 2020  Message :- first time download

12:14:41 246 02 January 2020  Message :-  Done version

12:14:41 253 02 January 2020  Message :-  start Port

12:14:41 280 02 January 2020  Message :-  Got Port

12:14:41 287 02 January 2020  Message :- start opening port

12:14:41 295 02 January 2020  Message :- port open 

12:14:41 302 02 January 2020  Message :- Done ctor, start event instialize

12:14:41 309 02 January 2020  Message :-  open call

12:14:41 321 02 January 2020  Message :- close hota open kela done 

12:14:41 328 02 January 2020  Message :-  open call end ,  start Port Done in PP3 class

12:14:41 365 02 January 2020  Message :-  sent 1st

12:14:41 574 02 January 2020  Message :-  Got 1

12:14:41 712 02 January 2020  Message :-  started sending Runtime

12:14:41 727 02 January 2020  Message :- Start sending File No :1

12:14:49 462 02 January 2020  Message :- Done File No :1

12:14:49 543 02 January 2020  Message :- Done both file..

12:14:51 84 02 January 2020  Message :- Runtime Cha response 221 Completed :) 

12:14:51 158 02 January 2020  Message :- port Exist and it is Closed

12:16:38 531 02 January 2020  Message :- get Download paramenter second time 

12:16:38 565 02 January 2020  Message :- second time download

12:16:38 570 02 January 2020  Message :-  Done version

12:16:38 576 02 January 2020  Message :-  start Port

12:16:38 635 02 January 2020  Message :-  Got Port

12:16:38 640 02 January 2020  Message :- start opening port

12:16:38 645 02 January 2020  Message :- port open 

12:16:38 650 02 January 2020  Message :- Done ctor, start event instialize

12:16:38 656 02 January 2020  Message :-  open call

12:16:38 669 02 January 2020  Message :- close hota open kela done 

12:16:38 675 02 January 2020  Message :-  open call end ,  start Port Done in PP3 class

12:16:38 706 02 January 2020  Message :-  sent 1st

12:16:38 913 02 January 2020  Message :-  Got 1

12:16:39 88 02 January 2020  Message :-  started sending Application

12:16:39 184 02 January 2020  Message :- 2st cha response 221

12:16:39 584 02 January 2020  Message :- Project cha response 221 Completed :) 

12:16:39 628 02 January 2020  Message :- port Exist and it is Closed

12:16:39 634 02 January 2020  Message :- End 100%

12:20:24 279 02 January 2020  Message :- Start Log.....!!!

12:20:25 544 02 January 2020  Message :- Save call Start

12:20:25 796 02 January 2020  Message :- Start Log.....!!!

12:20:25 802 02 January 2020  Message :- Zip Start AD

12:20:25 898 02 January 2020  Message :- Zip End

12:20:27 670 02 January 2020  Message :- get Download paramenter 1st time

12:20:28 95 02 January 2020  Message :- start vishal task

12:20:29 24 02 January 2020  Message :- end vishal task

12:20:29 52 02 January 2020  Message :- first time download

12:20:29 58 02 January 2020  Message :-  Done version

12:20:29 63 02 January 2020  Message :-  start Port

12:20:29 85 02 January 2020  Message :-  Got Port

12:20:29 90 02 January 2020  Message :- start opening port

12:20:29 95 02 January 2020  Message :- port open 

12:20:29 100 02 January 2020  Message :- Done ctor, start event instialize

12:20:29 105 02 January 2020  Message :-  open call

12:20:29 116 02 January 2020  Message :- close hota open kela done 

12:20:29 122 02 January 2020  Message :-  open call end ,  start Port Done in PP3 class

12:20:29 161 02 January 2020  Message :-  sent 1st

12:20:29 367 02 January 2020  Message :-  Got 1

12:20:29 546 02 January 2020  Message :- Start 0%

12:20:29 565 02 January 2020  Message :- pathvli ek

12:20:29 583 02 January 2020  Message :- 1st cha response 221

12:20:29 967 02 January 2020  Message :-  started sending Application

12:20:30 49 02 January 2020  Message :- 2st cha response 221

12:20:30 445 02 January 2020  Message :- Project cha response 221 Completed :) 

12:20:30 528 02 January 2020  Message :- port Exist and it is Closed

12:20:30 535 02 January 2020  Message :- End 100%

12:30:45 886 02 January 2020  Message :- Start Log.....!!!

12:30:46 772 02 January 2020  Message :- Save call Start

12:30:47 173 02 January 2020  Message :- Start Log.....!!!

12:30:47 183 02 January 2020  Message :- Zip Start AD

12:30:47 300 02 January 2020  Message :- Zip End

12:30:48 934 02 January 2020  Message :- get Download paramenter 1st time

12:30:49 327 02 January 2020  Message :- start vishal task

12:30:50 171 02 January 2020  Message :- end vishal task

12:30:50 206 02 January 2020  Message :- first time download

12:30:50 212 02 January 2020  Message :-  Done version

12:30:50 219 02 January 2020  Message :-  start Port

12:30:50 245 02 January 2020  Message :-  Got Port

12:30:50 250 02 January 2020  Message :- start opening port

12:30:50 256 02 January 2020  Message :- port open 

12:30:50 261 02 January 2020  Message :- Done ctor, start event instialize

12:30:50 268 02 January 2020  Message :-  open call

12:30:50 282 02 January 2020  Message :- close hota open kela done 

12:30:50 290 02 January 2020  Message :-  open call end ,  start Port Done in PP3 class

12:30:50 338 02 January 2020  Message :-  sent 1st

12:30:50 545 02 January 2020  Message :-  Got 1

12:30:50 679 02 January 2020  Message :-  started sending Application

12:30:50 781 02 January 2020  Message :- 2st cha response 221

12:30:51 375 02 January 2020  Message :- Project cha response 221 Completed :) 

12:30:51 466 02 January 2020  Message :- port Exist and it is Closed

12:30:51 477 02 January 2020  Message :- End 100%

12:33:05 32 02 January 2020  Message :- Start Log.....!!!

12:33:06 609 02 January 2020  Message :- Start Log.....!!!

windowsName : Windows 10 Enterprise
version : 6.3
build : 18362
Product ID : 1814
64 Bit operating system? : Yes
===========================================Start==========================================
Caption : Intel64 Family 6 Model 142 Stepping 9
CreationClassName : Win32_Processor
CurrentClockSpeed : 2600
CurrentVoltage : 8
Manufacturer : GenuineIntel
MaxClockSpeed : 2701
Name : Intel(R) Core(TM) i5-7200U CPU @ 2.50GHz
NumberOfCores : 2
NumberOfLogicalProcessors : 4
PowerManagementSupported : False
Status : OK
=========================================END============================================

09:39:23 487 15 January 2020  Message :- Save call Start

09:39:24 3 15 January 2020  Message :- Start Log.....!!!

09:39:24 18 15 January 2020  Message :- Zip Start AD

09:39:24 112 15 January 2020  Message :- Zip End

09:39:28 110 15 January 2020  Message :- get Download paramenter 1st time

09:39:28 559 15 January 2020  Message :- start vishal task

09:39:29 625 15 January 2020  Message :- end vishal task

09:39:29 656 15 January 2020  Message :- first time download

09:39:29 656 15 January 2020  Message :-  Done version

09:39:29 672 15 January 2020  Message :-  start Port

09:39:29 688 15 January 2020  Message :-  Got Port

09:39:29 688 15 January 2020  Message :- start opening port

09:39:29 703 15 January 2020  Message :- port open 

09:39:29 703 15 January 2020  Message :- Done ctor, start event instialize

09:39:29 703 15 January 2020  Message :-  open call

09:39:29 719 15 January 2020  Message :- close hota open kela done 

09:39:29 734 15 January 2020  Message :-  open call end ,  start Port Done in PP3 class

09:39:29 750 15 January 2020  Message :-  sent 1st

09:39:29 985 15 January 2020  Message :-  Got 1

09:39:30 150 15 January 2020  Message :-  started sending Application

09:39:30 229 15 January 2020  Message :- 2st cha response 221

09:39:30 503 15 January 2020  Message :- Project cha response 221 Completed :) 

09:39:30 597 15 January 2020  Message :- port Exist and it is Closed

09:39:30 597 15 January 2020  Message :- End 100%

09:41:04 612 15 January 2020  Message :- Start Log.....!!!

09:41:05 735 15 January 2020  Message :- Save call Start

09:41:06 78 15 January 2020  Message :- Start Log.....!!!

09:41:06 78 15 January 2020  Message :- Zip Start AD

09:41:06 184 15 January 2020  Message :- Zip End

09:41:12 611 15 January 2020  Message :- get Download paramenter 1st time

09:41:12 986 15 January 2020  Message :- start vishal task

09:41:13 699 15 January 2020  Message :- end vishal task

09:41:13 714 15 January 2020  Message :- first time download

09:41:13 730 15 January 2020  Message :-  Done version

09:41:13 730 15 January 2020  Message :-  start Port

09:41:13 761 15 January 2020  Message :-  Got Port

09:41:13 761 15 January 2020  Message :- start opening port

09:41:13 761 15 January 2020  Message :- port open 

09:41:13 777 15 January 2020  Message :- Done ctor, start event instialize

09:41:13 777 15 January 2020  Message :-  open call

09:41:13 777 15 January 2020  Message :- close hota open kela done 

09:41:13 793 15 January 2020  Message :-  open call end ,  start Port Done in PP3 class

09:41:13 824 15 January 2020  Message :-  sent 1st

09:41:14 42 15 January 2020  Message :-  Got 1

09:41:14 186 15 January 2020  Message :- Start 0%

09:41:14 192 15 January 2020  Message :- pathvli ek

09:41:14 200 15 January 2020  Message :- 1st cha response 221

09:41:14 266 15 January 2020  Message :- 2st cha response 221

09:41:14 657 15 January 2020  Message :- Project cha response 221 Completed :) 

09:41:14 719 15 January 2020  Message :- port Exist and it is Closed

09:41:14 719 15 January 2020  Message :- End 100%

09:42:36 751 15 January 2020  Message :- Save call Start

09:42:37 95 15 January 2020  Message :- Start Log.....!!!

09:42:37 95 15 January 2020  Message :- Zip Start AD

09:42:37 185 15 January 2020  Message :- Zip End

09:42:40 575 15 January 2020  Message :- Start Log.....!!!

09:42:41 449 15 January 2020  Message :- Save call Start

09:42:41 699 15 January 2020  Message :- Start Log.....!!!

09:42:41 715 15 January 2020  Message :- Zip Start AD

09:42:41 793 15 January 2020  Message :- Zip End

09:42:43 723 15 January 2020  Message :- get Download paramenter 1st time

09:42:44 154 15 January 2020  Message :- start vishal task

09:42:45 29 15 January 2020  Message :- end vishal task

09:42:45 44 15 January 2020  Message :- first time download

09:42:45 60 15 January 2020  Message :-  Done version

09:42:45 60 15 January 2020  Message :-  start Port

09:42:45 91 15 January 2020  Message :-  Got Port

09:42:45 91 15 January 2020  Message :- start opening port

09:42:45 91 15 January 2020  Message :- port open 

09:42:45 107 15 January 2020  Message :- Done ctor, start event instialize

09:42:45 107 15 January 2020  Message :-  open call

09:42:45 122 15 January 2020  Message :- close hota open kela done 

09:42:45 122 15 January 2020  Message :-  open call end ,  start Port Done in PP3 class

09:42:45 169 15 January 2020  Message :-  sent 1st

09:42:45 388 15 January 2020  Message :-  Got 1

09:42:45 544 15 January 2020  Message :- Start 0%

09:42:45 544 15 January 2020  Message :- pathvli ek

09:42:45 544 15 January 2020  Message :- 1st cha response 221

09:42:45 622 15 January 2020  Message :- 2st cha response 221

09:42:45 966 15 January 2020  Message :- Project cha response 221 Completed :) 

09:42:46 60 15 January 2020  Message :- port Exist and it is Closed

09:42:46 75 15 January 2020  Message :- End 100%

12:58:42 611 15 January 2020  Message :- Save call Start

12:58:43 80 15 January 2020  Message :- Start Log.....!!!

12:58:43 95 15 January 2020  Message :- Zip Start AD

12:58:43 533 15 January 2020  Message :- Zip End

13:00:17 468 15 January 2020  Message :- Save call Start

13:00:17 765 15 January 2020  Message :- Start Log.....!!!

13:00:17 781 15 January 2020  Message :- Zip Start AD

13:00:17 875 15 January 2020  Message :- Zip End

13:00:21 46 15 January 2020  Message :- get Download paramenter 1st time

13:00:21 514 15 January 2020  Message :- start vishal task

13:00:22 280 15 January 2020  Message :- end vishal task

13:00:22 311 15 January 2020  Message :- first time download

13:00:22 358 15 January 2020  Message :-  Connected TCP

13:00:22 655 15 January 2020  Message :- TCP result: 2

13:00:22 811 15 January 2020  Message :-  started sending Application

13:00:22 858 15 January 2020  Message :- 1st cha response 221

13:00:22 936 15 January 2020  Message :- 2st cha response 221

13:00:23 92 15 January 2020  Message :- Project cha response 221 Completed :) 

13:00:23 155 15 January 2020  Message :-  Close TCP

13:00:23 170 15 January 2020  Message :- End 100%

13:01:16 2 15 January 2020  Message :- Start Log.....!!!

13:01:16 986 15 January 2020  Message :- Save call Start

13:01:17 220 15 January 2020  Message :- Start Log.....!!!

13:01:17 236 15 January 2020  Message :- Zip Start AD

13:01:17 314 15 January 2020  Message :- Zip End

13:01:18 907 15 January 2020  Message :- get Download paramenter 1st time

13:01:19 313 15 January 2020  Message :- start vishal task

13:01:20 48 15 January 2020  Message :- end vishal task

13:01:20 79 15 January 2020  Message :- first time download

13:01:20 110 15 January 2020  Message :-  Connected TCP

13:01:20 422 15 January 2020  Message :- TCP result: 2

13:01:20 626 15 January 2020  Message :-  started sending Application

13:01:20 657 15 January 2020  Message :- 1st cha response 221

13:01:20 719 15 January 2020  Message :- 2st cha response 221

13:01:20 860 15 January 2020  Message :- Project cha response 221 Completed :) 

13:01:20 938 15 January 2020  Message :-  Close TCP

13:01:20 954 15 January 2020  Message :- End 100%

13:02:14 347 15 January 2020  Message :- Start Log.....!!!

13:06:05 89 15 January 2020  Message :- Save call Start

13:06:05 421 15 January 2020  Message :- Start Log.....!!!

13:06:05 430 15 January 2020  Message :- Zip Start AD

13:06:05 518 15 January 2020  Message :- Zip End

13:06:07 166 15 January 2020  Message :- get Download paramenter 1st time

13:06:07 606 15 January 2020  Message :- start vishal task

13:06:08 324 15 January 2020  Message :- end vishal task

13:06:08 356 15 January 2020  Message :- first time download

13:06:08 393 15 January 2020  Message :-  Connected TCP

13:06:08 696 15 January 2020  Message :- TCP result: 2

13:06:08 877 15 January 2020  Message :-  started sending Application

13:06:08 921 15 January 2020  Message :- 1st cha response 221

13:06:08 994 15 January 2020  Message :- 2st cha response 221

13:06:09 161 15 January 2020  Message :- Project cha response 221 Completed :) 

13:06:09 221 15 January 2020  Message :-  Close TCP

13:06:09 226 15 January 2020  Message :- End 100%

13:12:51 281 15 January 2020  Message :- Save call Start

13:12:51 597 15 January 2020  Message :- Start Log.....!!!

13:12:51 604 15 January 2020  Message :- Zip Start AD

13:12:51 708 15 January 2020  Message :- Zip End

13:12:53 216 15 January 2020  Message :- get Download paramenter 1st time

13:12:53 622 15 January 2020  Message :- start vishal task

13:12:54 382 15 January 2020  Message :- end vishal task

13:12:54 417 15 January 2020  Message :- first time download

13:12:54 456 15 January 2020  Message :-  Connected TCP

13:12:54 758 15 January 2020  Message :- TCP result: 2

13:12:54 895 15 January 2020  Message :-  started sending Application

13:12:54 947 15 January 2020  Message :- 1st cha response 221

13:12:54 999 15 January 2020  Message :- 2st cha response 221

13:12:55 161 15 January 2020  Message :- Project cha response 221 Completed :) 

13:12:55 201 15 January 2020  Message :-  Close TCP

13:12:55 206 15 January 2020  Message :- End 100%

13:14:15 199 15 January 2020  Message :- get Download paramenter second time 

13:14:15 236 15 January 2020  Message :- second time download

13:14:15 282 15 January 2020  Message :-  Connected TCP

13:14:15 584 15 January 2020  Message :- TCP result: 2

13:14:15 779 15 January 2020  Message :-  started sending Application

13:14:15 816 15 January 2020  Message :- 1st cha response 221

13:14:15 866 15 January 2020  Message :- 2st cha response 221

13:14:16 18 15 January 2020  Message :- Project cha response 221 Completed :) 

13:14:16 61 15 January 2020  Message :-  Close TCP

13:14:16 66 15 January 2020  Message :- End 100%

13:15:02 914 15 January 2020  Message :- Save call Start

13:15:03 215 15 January 2020  Message :- Start Log.....!!!

13:15:03 222 15 January 2020  Message :- Zip Start AD

13:15:03 318 15 January 2020  Message :- Zip End

13:15:05 284 15 January 2020  Message :- get Download paramenter 1st time

13:15:05 723 15 January 2020  Message :- start vishal task

13:15:06 459 15 January 2020  Message :- end vishal task

13:15:06 497 15 January 2020  Message :- first time download

13:15:06 538 15 January 2020  Message :-  Connected TCP

13:15:06 839 15 January 2020  Message :- TCP result: 2

13:15:07 13 15 January 2020  Message :- Start 0%

13:15:07 32 15 January 2020  Message :- pathvli ek

13:15:07 69 15 January 2020  Message :- 1st cha response 221

13:15:07 119 15 January 2020  Message :- 2st cha response 221

13:15:07 271 15 January 2020  Message :- Project cha response 221 Completed :) 

13:15:07 354 15 January 2020  Message :-  Close TCP

13:15:07 360 15 January 2020  Message :- End 100%

13:15:53 605 15 January 2020  Message :- Save call Start

13:15:53 852 15 January 2020  Message :- Start Log.....!!!

13:15:53 859 15 January 2020  Message :- Zip Start AD

13:15:53 958 15 January 2020  Message :- Zip End

13:15:55 132 15 January 2020  Message :- get Download paramenter 1st time

13:15:55 540 15 January 2020  Message :- start vishal task

13:15:56 258 15 January 2020  Message :- end vishal task

13:15:56 294 15 January 2020  Message :- first time download

13:15:56 335 15 January 2020  Message :-  Connected TCP

13:15:56 636 15 January 2020  Message :- TCP result: 2

13:15:56 815 15 January 2020  Message :- Start 0%

13:15:56 839 15 January 2020  Message :- pathvli ek

13:15:56 883 15 January 2020  Message :- 1st cha response 221

13:15:56 929 15 January 2020  Message :- 2st cha response 221

13:15:57 83 15 January 2020  Message :- Project cha response 221 Completed :) 

13:15:57 125 15 January 2020  Message :-  Close TCP

13:15:57 130 15 January 2020  Message :- End 100%

13:18:39 585 15 January 2020  Message :- Start Log.....!!!

13:18:40 700 15 January 2020  Message :- Save call Start

13:18:40 942 15 January 2020  Message :- Start Log.....!!!

13:18:40 948 15 January 2020  Message :- Zip Start AD

13:18:41 47 15 January 2020  Message :- Zip End

13:18:42 482 15 January 2020  Message :- get Download paramenter 1st time

13:18:42 883 15 January 2020  Message :- start vishal task

13:18:43 616 15 January 2020  Message :- end vishal task

13:18:43 650 15 January 2020  Message :- first time download

13:18:43 692 15 January 2020  Message :-  Connected TCP

13:18:43 992 15 January 2020  Message :- TCP result: 2

13:18:44 131 15 January 2020  Message :-  started sending Application

13:18:44 173 15 January 2020  Message :- 1st cha response 221

13:18:44 237 15 January 2020  Message :- 2st cha response 221

13:18:44 399 15 January 2020  Message :- Project cha response 221 Completed :) 

13:18:44 478 15 January 2020  Message :-  Close TCP

13:18:44 485 15 January 2020  Message :- End 100%

13:24:38 81 15 January 2020  Message :- Start Log.....!!!
